Terug naar catalogus

SL-16 DEB

ActiefLEO
NORAD 23094·DEBRIS·🇷🇺 Russia

Gelanceerd Apr 23, 1994 vanaf Baikonur Cosmodrome

Loading…

Volgende Passages (komende 24 uur)

TLE

VersSource: Space-Track

Epoch: Sep 14, 2026, 14:34 UTC

1 23094U 94023F   26257.60761757  .00000025  00000-0  62988-4 0  9991
2 23094  70.9851 221.8279 0201804 238.4626 233.8370 13.74408366623859

Volg SL-16 DEB in realtime met AllMySat

Download on the App Store